Location: Cicognara
(44.9500°N, 10.4667°E)
Time: 09:09:43
(UTC+00:00)

Cosmos 2228 - Pass Details

Date: 20 June 2021
Orbit: 588 x 618 km, 82.5° (Epoch: 04 August)

Event Time Altitude Azimuth Distance (km) Brightness Sun altitude
Rises 22:06:05 0° 344° (NNW) 2,905 8.2 -19.6°
Reaches altitude 10° 22:08:25 10° 337° (NNW) 1,994 6.9 -19.7°
Maximum altitude 22:12:32 40° 268° (W) 924 4.0 -19.9°
Enters shadow 22:14:07 29° 223° (SW) 1,144 4.1 -20.0°
